Weather History for Phuket, Thailand

Change the Weather History Date:

Sunday, April 27, 2014

  Actual Average Record
Temperature  
Mean Temperature 84 °F -  
Max Temperature 92 °F 89 °F 95 °F (1997)
Min Temperature 75 °F 78 °F 75 °F (2008)
Cooling Degree Days 18    
Growing Degree Days 34 (Base 50)    
Moisture  
Dew Point 77 °F    
Average Humidity 75    
Maximum Humidity 89    
Minimum Humidity 55    
Precipitation  
Precipitation 0.00 in 0.43 in - ()
Sea Level Pressure  
Sea Level Pressure 29.81 in    
Wind  
Wind Speed 4 mph ()    
Max Wind Speed 13 mph    
Max Gust Speed -    
Visibility 5.6 miles    
Events      
Averages and records for this station are not official NWS values.
T = Trace of Precipitation, MM = Missing Value Source: Averaged Metar Reports

Daily Weather History Graph

Daily Weather History Graph

Search for Another Location

Airport:

Trip Planner

Search our weather history database for the weather conditions in past years. The results will help you decide how hot, cold, wet, or windy it might be!

Date:

Astronomy

Apr. 27, 2014 Rise Set
Actual Time 6:13 AM ICT 6:35 PM ICT
Civil Twilight 5:51 AM ICT 6:57 PM ICT
Nautical Twilight 5:26 AM ICT 7:22 PM ICT
Astronomical Twilight 5:01 AM ICT 7:48 PM ICT
Moon 4:26 AM ICT (4/27) 4:57 PM ICT (4/27)
Length of Visible Light 13h 06m
Length of Day
12h 22m
Waning Crescent, 5% of the Moon is Illuminated
Apr 27
Waning Crescent
Apr 29
New
May 7
First Quarter
May 15
Full
May 21
Last Quarter

Hourly Weather History & Observations

Time (ICT) Temp. Heat Index Dew Point Humidity Pressure Visibility Wind Dir Wind Speed Gust Speed Precip Events Conditions
12:00 AM 80.6 °F 87.1 °F 77.0 °F 89% 29.86 in 5.0 mi Variable 2.3 mph - N/A   Mostly Cloudy
12:30 AM 82.4 °F 90.9 °F 77.0 °F 84% 29.83 in 5.0 mi Variable 2.3 mph - N/A   Mostly Cloudy
1:00 AM 82 °F - 79 °F 89% 29.76 in 5 mi Calm Calm - -   Scattered Clouds
1:00 AM 80.6 °F 87.1 °F 77.0 °F 89% 29.83 in 5.0 mi Variable 1.2 mph - N/A   Mostly Cloudy
1:30 AM 80.6 °F 87.1 °F 77.0 °F 89% 29.83 in 5.0 mi Variable 1.2 mph - N/A   Mostly Cloudy
2:00 AM 82.4 °F 90.9 °F 77.0 °F 84% 29.80 in 5.0 mi NW 3.5 mph - N/A   Mostly Cloudy
2:30 AM 82.4 °F 90.9 °F 77.0 °F 84% 29.80 in 5.0 mi Variable 2.3 mph - N/A   Mostly Cloudy
3:00 AM 80.6 °F 87.1 °F 77.0 °F 89% 29.80 in 5.0 mi ENE 3.5 mph - N/A   Mostly Cloudy
3:30 AM 80.6 °F 87.1 °F 77.0 °F 89% 29.80 in 5.0 mi Variable 2.3 mph - N/A   Mostly Cloudy
4:00 AM 82 °F - 77 °F 80% 29.72 in 5 mi Calm Calm - -   Mist
4:00 AM 80.6 °F 87.1 °F 77.0 °F 89% 29.80 in 5.0 mi Variable 1.2 mph - N/A   Mostly Cloudy
4:30 AM 80.6 °F 87.1 °F 77.0 °F 89% 29.80 in 5.0 mi Calm Calm - N/A   Mostly Cloudy
5:00 AM 80.6 °F 87.1 °F 77.0 °F 89% 29.80 in 5.0 mi Variable 2.3 mph - N/A   Mostly Cloudy
5:30 AM 80.6 °F 87.1 °F 77.0 °F 89% 29.80 in 5.0 mi Variable 1.2 mph - N/A   Mostly Cloudy
6:00 AM 80.6 °F 87.1 °F 77.0 °F 89% 29.80 in 5.0 mi Variable 2.3 mph - N/A   Mostly Cloudy
6:30 AM 80.6 °F 87.1 °F 77.0 °F 89% 29.83 in 5.0 mi Variable 1.2 mph - N/A   Mostly Cloudy
7:00 AM 82 °F - 79 °F 89% 29.79 in 6 mi Calm Calm - -   Scattered Clouds
7:00 AM 80.6 °F 87.1 °F 77.0 °F 89% 29.83 in 5.6 mi Variable 2.3 mph - N/A   Mostly Cloudy
7:30 AM 82.4 °F 90.9 °F 77.0 °F 84% 29.86 in 5.6 mi NE 3.5 mph - N/A   Mostly Cloudy
8:00 AM 86.0 °F 96.9 °F 77.0 °F 74% 29.86 in 5.6 mi NE 4.6 mph - N/A   Mostly Cloudy
8:30 AM 86.0 °F 95.1 °F 75.2 °F 70% 29.86 in 5.6 mi NE 5.8 mph - N/A   Mostly Cloudy
9:00 AM 87.8 °F 99.7 °F 77.0 °F 70% 29.86 in 5.6 mi ENE 6.9 mph - N/A   Mostly Cloudy
9:30 AM 89.6 °F 99.8 °F 75.2 °F 62% 29.86 in 5.6 mi ENE 8.1 mph - N/A   Mostly Cloudy
10:00 AM 90 °F - 79 °F 64% 29.84 in 6 mi SE 8.1 mph - -   Scattered Clouds
10:00 AM 91.4 °F 102.5 °F 75.2 °F 59% 29.86 in 5.6 mi East 9.2 mph - N/A   Mostly Cloudy
10:30 AM 91.4 °F 102.5 °F 75.2 °F 59% 29.86 in 6.2 mi East 8.1 mph - N/A   Mostly Cloudy
11:00 AM 91.4 °F 100.1 °F 73.4 °F 55% 29.86 in 6.2 mi East 8.1 mph - N/A   Mostly Cloudy
11:30 AM 91.4 °F 102.5 °F 75.2 °F 59% 29.86 in 6.2 mi Variable 5.8 mph - N/A   Mostly Cloudy
12:00 PM 93.2 °F 105.0 °F 75.2 °F 56% 29.83 in 6.2 mi East 6.9 mph - N/A   Mostly Cloudy
12:30 PM 91.4 °F 102.5 °F 75.2 °F 59% 29.83 in 6.2 mi Variable 4.6 mph - N/A   Mostly Cloudy
1:00 PM 92 °F - 78 °F 57% 29.82 in 6 mi Calm Calm - -   Scattered Clouds
1:00 PM 87.8 °F 99.7 °F 77.0 °F 70% 29.83 in 6.2 mi WSW 4.6 mph - N/A   Mostly Cloudy
1:30 PM 87.8 °F 99.7 °F 77.0 °F 70% 29.80 in 6.2 mi WSW 6.9 mph - N/A   Mostly Cloudy
2:00 PM 89.6 °F 102.2 °F 77.0 °F 66% 29.80 in 6.2 mi SW 9.2 mph - N/A   Mostly Cloudy
2:30 PM 91.4 °F 105.1 °F 77.0 °F 63% 29.77 in 6.2 mi WSW 9.2 mph - N/A   Mostly Cloudy
3:00 PM 89.6 °F 104.7 °F 78.8 °F 70% 29.77 in 5.6 mi SW 11.5 mph - N/A   Mostly Cloudy
3:30 PM 89.6 °F 104.7 °F 78.8 °F 70% 29.74 in 5.6 mi WSW 11.5 mph - N/A   Mostly Cloudy
4:00 PM 92 °F - 80 °F 60% 29.74 in 6 mi WNW 10.4 mph - -   Scattered Clouds
4:00 PM 89.6 °F 102.2 °F 77.0 °F 66% 29.74 in 5.6 mi SW 12.7 mph - N/A   Mostly Cloudy
4:30 PM 87.8 °F 99.7 °F 77.0 °F 70% 29.77 in 5.6 mi SW 5.8 mph - N/A   Mostly Cloudy
5:00 PM 87.8 °F 97.6 °F 75.2 °F 66% 29.74 in 5.6 mi WSW 8.1 mph - N/A   Mostly Cloudy
5:30 PM 87.8 °F 99.7 °F 77.0 °F 70% 29.77 in 5.6 mi West 10.4 mph - N/A   Mostly Cloudy
6:00 PM 86.0 °F 96.9 °F 77.0 °F 74% 29.77 in 5.6 mi WSW 8.1 mph - N/A   Mostly Cloudy
6:30 PM 86.0 °F 96.9 °F 77.0 °F 74% 29.77 in 5.6 mi WSW 5.8 mph - N/A   Mostly Cloudy
7:00 PM 87 °F - 79 °F 71% 29.74 in 6 mi Calm Calm - -   Scattered Clouds
7:00 PM 86.0 °F 96.9 °F 77.0 °F 74% 29.80 in 5.6 mi West 10.4 mph - N/A   Mostly Cloudy
7:30 PM 86.0 °F 96.9 °F 77.0 °F 74% 29.80 in 5.6 mi West 9.2 mph - N/A   Mostly Cloudy
8:00 PM 86.0 °F 96.9 °F 77.0 °F 74% 29.80 in 5.6 mi West 9.2 mph - N/A   Mostly Cloudy
8:30 PM 86.0 °F 96.9 °F 77.0 °F 74% 29.83 in 5.6 mi West 9.2 mph - N/A   Mostly Cloudy
9:00 PM 86.0 °F 96.9 °F 77.0 °F 74% 29.83 in 5.6 mi West 8.1 mph - N/A   Mostly Cloudy
9:30 PM 86.0 °F 96.9 °F 77.0 °F 74% 29.83 in 5.6 mi West 9.2 mph - N/A   Mostly Cloudy
10:00 PM 87 °F - 77 °F 66% 29.81 in 6 mi West 3.5 mph - -   Scattered Clouds
10:00 PM 86.0 °F 96.9 °F 77.0 °F 74% 29.86 in 5.6 mi WNW 6.9 mph - N/A   Mostly Cloudy
10:30 PM 84.2 °F 94.1 °F 77.0 °F 79% 29.86 in 5.6 mi West 6.9 mph - N/A   Mostly Cloudy
11:00 PM 84.2 °F 94.1 °F 77.0 °F 79% 29.86 in 5.6 mi WNW 5.8 mph - N/A   Mostly Cloudy
11:30 PM 84.2 °F 94.1 °F 77.0 °F 79% 29.86 in 5.0 mi WNW 5.8 mph - N/A   Mostly Cloudy